Wind_Speed
5 18 10 7 4 1 5 8 7 14 13 24 32 25 18 16 8 12 29 20 24 21 19 18 18 19 19 19 20 20 21 21 21 22 21 22 25 24 25 30 32 29 28 28 26 23 22 21 23
4 8 5 2 2 6 4 8 8 20 23 33 35 31 29 22 31 35 27 17 20 21 19 19 17 18 18 18 19 18 21 21 23 24 24 26 26 24 23 25 30 27 23 26 24 22 23 25 26
4 6 5 3 0 6 6 8 9 18 26 26 24 25 12 21 25 27 25 21 21 19 17 18 18 18 17 17 18 18 19 22 24 24 25 25 26 25 25 25 26 27 24 22 22 22 22 23 24
16 4 7 2 14 13 14 10 14 12 28 34 25 13 31 27 29 31 31 25 19 17 16 18 17 17 18 16 17 17 19 20 22 22 22 24 24 23 24 24 24 25 21 21 20 20 21 21 22
16 8 4 4 12 6 6 17 20 16 25 28 31 22 26 24 32 41 33 25 19 20 16 16 15 17 17 16 16 16 17 18 20 21 21 22 22 20 20 21 22 22 20 19 17 18 21 24 23
8 5 2 5 15 9 7 23 24 26 28 28 31 27 23 25 26 28 24 16 14 19 17 16 15 14 15 15 15 15 15 17 18 18 19 20 19 17 20 19 20 19 19 17 17 18 20 20 20
9 2 6 8 12 13 16 20 17 20 24 23 30 16 20 20 26 26 20 17 16 18 17 16 15 15 14 13 13 14 14 15 15 17 17 17 17 17 17 17 18 17 16 15 15 15 15 15 16
11 4 5 3 8 11 17 13 17 16 21 31 36 13 17 23 25 27 27 18 16 15 14 17 14 14 14 12 12 12 13 14 14 15 16 16 14 14 14 13 12 11 13 13 13 13 13 12 12
4 5 6 4 14 4 16 8 8 8 22 26 14 30 28 24 30 34 28 21 16 10 11 13 13 10 11 12 13 14 13 14 13 14 17 16 13 10 11 10 8 8 9 9 9 9 10 12 12
4 2 10 13 12 8 15 19 10 9 13 24 29 32 27 24 27 26 23 19 16 17 17 11 13 12 8 11 14 16 16 14 12 11 9 9 8 8 6 6 5 5 4 5 6 7 8 10 10
6 5 10 24 22 7 16 19 15 13 15 29 32 30 27 23 24 22 15 16 17 20 20 15 10 10 10 13 13 11 9 11 9 9 8 5 5 2 2 4 4 6 3 8 7 7 8 7 4
3 21 10 22 19 5 12 21 15 18 22 31 30 28 27 23 22 23 18 22 22 21 16 11 8 8 10 9 9 11 11 7 7 8 8 7 6 5 4 2 2 2 0 4 6 4 4 2 2
8 11 17 12 23 6 17 16 16 20 28 29 27 27 25 24 24 24 21 27 22 21 15 9 7 10 7 8 9 13 11 12 12 11 11 10 12 9 8 6 7 5 5 4 6 4 3 4 5
15 17 17 15 11 6 5 6 15 23 27 28 27 26 23 24 23 23 27 26 19 19 21 14 8 9 9 5 5 2 13 12 14 12 8 12 11 11 8 8 7 5 6 3 3 5 7 6 10
10 7 10 5 5 3 3 5 6 27 27 28 26 24 19 15 23 25 22 21 20 22 21 11 8 9 10 4 6 7 6 12 14 9 6 7 10 9 11 8 9 11 12 6 10 11 12 15 12
3 5 5 8 14 9 18 4 2 27 26 25 25 27 21 16 19 19 21 20 23 23 18 8 8 9 8 4 4 6 12 13 13 12 7 6 7 7 8 4 6 6 5 6 6 6 9 9 11
5 3 13 18 11 12 10 22 12 24 23 20 23 27 24 23 20 18 22 23 22 23 19 12 15 7 4 5 3 5 6 9 10 9 7 6 5 5 6 5 3 1 4 5 4 8 6 7 5
5 7 5 14 23 15 19 20 6 7 22 22 21 20 27 27 23 18 21 24 24 21 19 18 13 13 8 7 4 10 6 8 7 6 4 5 4 5 7 7 8 4 8 7 10 8 10 6 6
9 14 17 20 19 16 12 19 13 27 31 23 28 26 27 27 23 23 17 20 21 21 16 21 22 14 14 8 7 6 7 7 5 5 3 1 4 5 5 9 10 9 11 8 12 10 10 9 7
10 16 17 15 21 9 16 15 13 20 15 8 29 31 26 29 28 23 27 23 21 15 14 17 18 18 16 13 9 5 1 9 8 6 2 6 7 8 8 5 8 10 11 11 10 8 9 10 8
8 11 5 6 5 3 6 5 7 10 14 9 19 37 31 35 33 30 26 30 24 20 15 17 18 17 14 14 11 10 4 6 11 7 5 3 2 4 4 5 5 8 8 10 10 9 6 7 7
6 20 15 11 5 2 4 2 6 11 23 16 22 30 36 35 31 31 26 32 28 24 22 21 20 16 14 19 12 9 11 8 5 7 6 2 3 0 4 6 3 5 7 6 6 6 4 4 3
14 13 14 16 7 4 3 6 9 12 16 19 22 16 36 37 38 35 29 29 26 22 19 22 18 13 17 20 15 11 9 8 8 6 2 2 4 7 7 8 10 8 8 5 4 3 3 3 2
7 5 10 7 8 4 5 7 6 7 13 8 16 26 32 37 37 36 32 29 25 22 20 22 17 10 18 20 16 16 13 11 9 7 5 5 6 7 5 7 3 2 2 4 4 4 4 5 6
3 2 5 6 4 5 6 4 8 18 20 20 21 8 32 38 35 36 33 29 28 25 25 22 17 15 20 20 18 16 13 11 11 8 8 4 4 3 4 5 3 5 5 6 6 5 6 7 7
4 2 5 7 3 2 4 4 6 15 19 20 17 15 31 35 35 33 32 29 32 26 24 21 16 21 23 22 19 18 15 11 9 7 4 2 3 3 8 12 9 6 7 7 6 6 7 7 8
5 3 5 10 7 5 4 6 2 4 10 30 15 21 27 35 36 33 34 30 29 26 22 18 14 20 23 19 17 14 11 11 9 5 6 5 6 9 9 5 5 4 4 2 4 7 7 8 9
5 2 6 4 5 3 4 5 7 1 14 28 14 22 24 34 39 33 33 30 26 21 22 19 16 19 21 18 16 13 13 12 11 11 9 8 7 9 10 8 4 3 3 2 1 4 5 5 4
5 2 3 6 6 6 4 6 9 14 22 19 17 29 34 34 34 34 33 28 25 23 25 21 19 20 21 17 13 14 13 13 11 9 9 9 6 4 2 2 2 2 3 5 4 2 5 7 7
4 6 3 5 5 5 6 2 10 16 15 26 22 31 35 33 33 32 32 29 27 26 27 23 21 23 22 21 17 16 15 14 12 8 7 5 2 2 2 2 1 1 5 6 4 3 2 3 4
Wind_Direction
106 92 56 51 25 101 94 103 118 113 62 75 71 72 69 67 116 122 142 134 130 122 119 112 109 106 105 102 98 94 88 84 89 105 108 112 110 106 92 92 90 87 93 105 112 112 110 114 115
122 103 305 293 230 72 51 75 78 98 109 90 82 80 74 78 105 126 121 123 129 118 119 112 114 111 109 105 99 98 92 90 91 104 105 111 107 107 104 97 100 89 96 106 106 110 118 120 116
52 164 245 206 249 104 103 96 77 101 102 104 91 100 98 117 118 135 128 122 120 111 119 115 117 115 113 109 105 100 95 92 95 104 108 108 108 107 107 104 107 112 113 112 117 118 117 122 124
26 301 266 220 76 49 59 79 87 97 97 105 98 71 95 113 126 135 128 134 124 123 125 120 121 116 114 114 110 104 101 99 100 104 109 113 111 110 111 112 112 112 116 119 120 122 123 128 124
46 356 7 86 100 97 98 88 81 67 89 92 99 109 109 120 120 133 137 143 129 128 126 123 121 116 117 111 108 109 110 107 106 107 111 114 115 114 117 114 117 118 121 119 119 119 124 133 126
63 86 324 70 76 100 109 107 94 98 97 99 101 108 117 129 135 143 142 129 115 117 124 122 118 115 116 115 115 112 114 114 111 113 113 115 114 120 122 124 123 123 126 126 125 125 128 137 134
117 74 10 41 77 75 79 94 118 125 130 126 123 120 135 146 137 136 137 131 104 103 112 114 113 112 111 117 122 119 117 116 123 117 115 115 117 118 121 127 126 125 123 123 123 122 120 128 136
122 109 63 283 83 86 68 61 55 107 130 132 131 143 149 152 146 132 134 129 107 104 110 117 105 104 104 112 115 123 117 111 117 124 123 119 119 124 125 127 137 135 129 125 133 128 122 120 128
61 95 187 196 91 153 101 89 95 129 133 145 158 145 145 135 130 131 131 132 124 113 124 107 97 101 90 111 114 114 118 116 121 127 127 121 125 122 129 120 135 140 140 131 130 131 127 119 120
86 350 87 97 127 119 123 132 156 125 135 124 131 138 145 143 142 131 128 133 140 148 143 123 97 92 102 119 117 116 106 114 123 110 127 138 123 100 99 106 122 142 153 154 150 143 152 137 133
15 12 86 58 357 111 137 149 153 137 118 126 131 139 152 150 143 153 143 145 135 144 153 146 115 100 106 120 128 120 121 123 123 138 130 168 135 139 160 85 117 143 141 158 124 135 143 153 176
325 359 37 123 170 260 153 117 94 130 135 137 138 147 151 165 155 167 160 158 144 146 147 151 133 127 128 137 158 139 146 167 165 156 137 168 172 181 231 207 181 178 217 189 128 122 153 179 298
50 357 0 81 177 114 97 104 112 110 127 135 141 156 164 172 172 172 163 158 144 150 172 165 155 145 148 149 137 149 162 177 185 180 174 195 188 193 209 222 242 256 230 206 200 188 212 243 270
318 297 55 315 87 26 79 87 128 127 136 140 153 165 178 182 176 169 153 155 150 148 163 159 158 156 143 160 123 136 160 171 182 184 179 201 206 204 206 204 200 210 235 208 181 204 217 257 255
310 332 356 230 247 323 284 48 117 145 146 150 164 169 183 185 159 149 151 161 160 161 169 175 145 136 161 133 138 113 179 174 165 171 206 191 205 210 211 224 226 238 231 243 243 240 253 258 252
8 22 5 327 320 332 346 282 204 153 154 164 172 165 172 173 156 169 164 167 163 166 176 181 178 132 120 111 86 94 125 138 133 127 112 158 182 191 190 172 201 206 198 238 264 260 250 269 250
7 312 17 334 324 336 40 302 274 169 163 181 174 172 174 168 167 168 169 173 168 174 169 152 198 168 139 150 91 96 113 115 120 99 125 103 99 120 143 142 195 294 213 256 261 250 252 270 230
163 94 101 280 283 171 205 244 233 23 171 184 178 172 168 166 166 170 171 169 167 173 170 159 155 155 169 186 119 117 156 135 133 136 127 167 197 207 229 209 201 235 241 248 253 270 280 275 270
162 146 168 237 257 203 214 113 84 290 292 187 177 175 170 175 182 186 167 184 183 188 192 185 184 187 182 176 165 187 148 161 164 145 169 225 248 243 216 225 213 232 232 255 260 275 262 271 282
223 194 211 228 245 130 109 130 184 195 266 222 181 176 177 172 181 179 194 189 186 190 199 185 191 190 204 197 196 186 22 213 184 171 125 301 269 239 252 263 268 247 243 261 266 270 280 268 278
237 244 277 230 101 41 146 64 183 225 320 278 190 179 178 176 179 181 188 196 190 183 188 189 195 202 217 195 193 193 173 105 153 186 298 29 270 274 283 284 281 260 270 269 268 277 281 280 257
63 265 253 53 79 81 21 240 322 352 325 316 310 179 181 181 179 184 188 192 187 196 197 195 199 220 216 197 189 187 219 191 185 211 259 211 247 42 233 264 276 246 266 283 270 281 274 238 211
219 228 88 63 43 116 16 69 300 332 293 289 286 262 183 181 182 179 181 185 191 194 195 204 214 225 190 186 188 189 202 201 195 222 238 248 225 245 264 273 276 262 266 274 278 260 216 216 264
96 98 50 31 47 6 153 134 237 229 242 274 274 270 185 174 176 180 183 189 188 187 189 199 208 214 180 184 189 195 202 206 205 210 229 233 245 262 257 289 282 275 247 259 252 239 236 265 275
175 178 58 325 23 241 189 83 234 222 232 233 261 207 167 167 170 177 181 182 183 178 185 193 199 198 182 190 199 202 189 207 221 229 239 238 205 194 283 300 272 277 279 272 277 264 246 264 285
333 61 158 182 181 265 124 221 251 228 231 294 157 132 152 161 171 171 173 175 175 175 185 187 205 187 187 192 210 216 218 217 229 248 261 204 220 245 272 294 291 283 272 270 267 252 246 263 276
204 245 241 91 43 91 282 298 316 231 9 335 161 138 149 157 163 163 168 174 173 177 187 202 188 181 188 194 190 196 197 196 218 225 203 220 235 244 279 284 295 291 304 313 244 251 270 285 295
138 203 17 356 158 202 330 357 269 127 156 217 229 156 146 149 160 163 170 175 181 185 190 197 200 187 180 180 178 183 193 213 217 216 231 223 238 261 275 284 276 313 333 358 296 292 303 327 315
8 359 226 117 135 155 145 270 246 231 192 199 204 152 147 152 157 164 170 178 184 184 192 194 201 187 172 163 166 187 199 200 218 228 220 233 239 233 221 242 279 342 339 351 1 348 9 48 50
191 235 223 132 255 206 163 197 252 246 146 194 174 154 157 162 165 170 173 177 183 186 194 199 197 178 173 179 187 193 205 219 225 188 185 181 181 119 51 33 27 16 337 355 7 22 10 52 52
Height
1488 1487 1482 1479 1492 1491 1496 1491 1480 1486 1487 1484 1483 1486 1492 1491 1499 1524 1524 1525 1527 1529 1532 1534 1536 1536 1537 1538 1538 1538 1537 1537 1538 1538 1539 1540 1541 1542 1542 1542 1543 1544 1544 1545 1548 1551 1552 1555 1557
1488 1486 1486 1486 1498 1508 1502 1482 1485 1485 1488 1487 1488 1493 1496 1503 1504 1515 1521 1526 1528 1530 1533 1535 1537 1538 1539 1540 1540 1540 1539 1540 1540 1540 1542 1543 1545 1546 1546 1545 1545 1548 1549 1551 1552 1554 1556 1559 1560
1489 1490 1489 1487 1490 1504 1500 1483 1483 1485 1488 1489 1491 1496 1502 1510 1514 1515 1520 1526 1529 1532 1534 1536 1538 1539 1540 1541 1542 1542 1543 1543 1543 1544 1546 1547 1549 1549 1550 1550 1550 1552 1553 1554 1556 1558 1560 1562 1563
1488 1490 1489 1490 1497 1493 1486 1485 1484 1485 1489 1491 1494 1505 1510 1513 1514 1517 1522 1524 1529 1533 1536 1537 1539 1540 1541 1543 1544 1545 1545 1546 1547 1548 1549 1550 1552 1553 1553 1554 1555 1555 1556 1558 1560 1561 1562 1563 1564
1487 1491 1502 1489 1494 1485 1482 1484 1487 1489 1494 1497 1500 1510 1515 1519 1520 1521 1525 1527 1530 1533 1537 1538 1540 1541 1543 1544 1545 1547 1548 1549 1550 1551 1551 1552 1555 1556 1556 1556 1557 1558 1559 1561 1563 1563 1564 1565 1566
1489 1498 1514 1500 1490 1484 1486 1487 1488 1493 1500 1505 1508 1512 1519 1522 1523 1524 1527 1530 1532 1534 1537 1539 1541 1542 1544 1546 1547 1548 1550 1551 1552 1553 1554 1555 1557 1558 1559 1560 1560 1560 1561 1563 1565 1566 1566 1567 1568
1492 1505 1507 1491 1493 1490 1488 1487 1489 1491 1498 1504 1509 1513 1521 1523 1524 1527 1528 1531 1535 1537 1539 1541 1543 1544 1546 1547 1549 1550 1551 1552 1553 1555 1556 1557 1559 1560 1561 1562 1563 1564 1564 1565 1566 1567 1568 1569 1570
1482 1494 1514 1509 1496 1497 1489 1490 1489 1492 1499 1504 1508 1515 1520 1522 1527 1527 1530 1532 1535 1538 1540 1542 1544 1546 1547 1548 1549 1551 1552 1554 1555 1556 1557 1558 1560 1561 1563 1563 1565 1566 1567 1567 1567 1568 1569 1570 1571
1484 1507 1522 1500 1497 1497 1490 1492 1493 1495 1499 1503 1506 1512 1518 1523 1527 1530 1534 1535 1536 1538 1540 1543 1544 1547 1548 1549 1549 1551 1553 1555 1556 1557 1558 1560 1560 1561 1563 1565 1565 1566 1568 1568 1569 1569 1570 1571 1571
1487 1497 1489 1483 1486 1489 1492 1491 1494 1495 1497 1503 1509 1517 1521 1525 1527 1530 1533 1537 1539 1540 1541 1542 1545 1546 1548 1549 1551 1552 1554 1555 1557 1558 1561 1561 1561 1562 1564 1564 1565 1567 1567 1568 1568 1568 1569 1570 1571
1487 1493 1481 1489 1488 1485 1491 1494 1496 1495 1501 1504 1510 1517 1522 1526 1528 1531 1533 1536 1539 1542 1543 1545 1546 1547 1548 1550 1552 1554 1555 1556 1557 1558 1560 1561 1562 1563 1565 1565 1565 1566 1567 1568 1568 1568 1569 1571 1572
1494 1487 1485 1488 1487 1489 1491 1491 1494 1495 1500 1505 1511 1518 1522 1525 1528 1530 1531 1535 1539 1543 1544 1545 1547 1548 1549 1550 1550 1552 1553 1555 1557 1559 1560 1562 1562 1563 1564 1565 1566 1565 1567 1568 1566 1568 1569 1570 1570
1492 1493 1494 1498 1492 1489 1488 1492 1495 1500 1502 1507 1512 1517 1520 1523 1525 1528 1530 1535 1538 1542 1543 1544 1546 1548 1549 1550 1551 1550 1552 1553 1556 1558 1560 1560 1563 1564 1564 1564 1565 1565 1566 1565 1566 1567 1569 1569 1570
1504 1498 1499 1495 1489 1491 1491 1493 1496 1503 1505 1508 1512 1516 1519 1521 1524 1527 1531 1534 1537 1540 1543 1544 1546 1548 1550 1550 1551 1550 1550 1553 1554 1556 1559 1560 1561 1562 1563 1563 1565 1565 1566 1566 1565 1565 1566 1568 1569
1500 1501 1495 1501 1496 1494 1493 1498 1498 1501 1507 1509 1512 1515 1518 1521 1524 1527 1531 1534 1536 1539 1542 1544 1546 1547 1549 1550 1551 1552 1549 1552 1555 1556 1557 1558 1560 1562 1564 1562 1563 1565 1565 1564 1565 1565 1566 1567 1567
1509 1511 1523 1500 1501 1501 1509 1516 1502 1504 1508 1510 1512 1515 1517 1521 1524 1526 1529 1533 1536 1538 1540 1543 1545 1546 1548 1548 1550 1551 1551 1552 1555 1556 1558 1559 1560 1561 1561 1562 1563 1564 1563 1562 1563 1563 1565 1565 1564
1516 1532 1522 1513 1510 1519 1526 1530 1504 1503 1508 1512 1511 1514 1516 1519 1523 1527 1529 1532 1534 1536 1539 1542 1543 1546 1547 1548 1552 1554 1554 1553 1555 1556 1558 1560 1560 1561 1561 1562 1563 1563 1563 1562 1562 1562 1563 1564 1563
1538 1536 1537 1529 1497 1522 1524 1515 1505 1512 1504 1507 1511 1513 1516 1519 1522 1527 1529 1530 1533 1537 1540 1542 1543 1546 1547 1549 1552 1546 1555 1555 1555 1557 1558 1559 1562 1563 1562 1561 1560 1562 1563 1562 1561 1560 1561 1561 1560
1512 1519 1519 1500 1485 1507 1513 1511 1509 1510 1514 1501 1504 1507 1513 1517 1521 1525 1528 1530 1533 1535 1538 1540 1542 1545 1547 1549 1551 1553 1553 1553 1555 1557 1560 1560 1561 1561 1560 1560 1560 1560 1560 1560 1558 1558 1559 1559 1558
1502 1513 1510 1490 1485 1492 1500 1512 1507 1512 1512 1502 1500 1503 1506 1513 1516 1519 1525 1528 1530 1532 1535 1538 1540 1544 1546 1548 1549 1550 1552 1552 1555 1558 1559 1560 1559 1558 1556 1557 1557 1558 1557 1557 1557 1557 1556 1556 1555
1505 1507 1499 1493 1481 1490 1494 1514 1515 1511 1503 1500 1497 1496 1501 1501 1507 1514 1519 1523 1527 1529 1532 1536 1538 1542 1545 1546 1549 1551 1552 1552 1554 1557 1556 1555 1557 1554 1555 1555 1555 1555 1556 1554 1554 1554 1554 1553 1554
1526 1485 1485 1487 1496 1520 1494 1542 1518 1504 1499 1495 1494 1496 1494 1498 1503 1510 1516 1519 1522 1527 1530 1532 1536 1539 1541 1545 1548 1551 1552 1554 1554 1555 1554 1552 1555 1553 1555 1554 1554 1554 1553 1551 1552 1552 1551 1551 1552
1487 1479 1492 1490 1502 1509 1519 1543 1536 1510 1503 1491 1483 1491 1487 1492 1497 1504 1511 1515 1518 1523 1527 1531 1534 1537 1539 1543 1545 1548 1550 1551 1551 1553 1554 1554 1555 1553 1552 1553 1553 1552 1551 1550 1551 1551 1551 1551 1551
1462 1472 1488 1499 1505 1532 1517 1531 1542 1521 1496 1488 1481 1479 1483 1489 1495 1502 1509 1513 1516 1520 1523 1528 1532 1535 1538 1541 1543 1546 1547 1549 1551 1553 1554 1553 1553 1553 1553 1552 1550 1549 1549 1548 1550 1550 1551 1550 1549
1464 1480 1533 1552 1553 1549 1515 1522 1513 1494 1489 1484 1481 1477 1478 1487 1495 1501 1506 1511 1514 1518 1520 1525 1529 1532 1536 1539 1541 1543 1546 1547 1549 1551 1552 1553 1553 1552 1551 1550 1549 1548 1547 1547 1548 1548 1548 1548 1546
1470 1480 1523 1549 1551 1537 1514 1526 1505 1476 1479 1483 1476 1478 1481 1488 1494 1499 1504 1508 1513 1516 1519 1522 1526 1529 1532 1536 1539 1542 1544 1546 1546 1547 1548 1549 1549 1549 1549 1547 1546 1545 1545 1546 1546 1546 1545 1545 1545
1470 1490 1472 1510 1518 1533 1518 1498 1479 1478 1485 1485 1477 1478 1482 1487 1492 1498 1503 1507 1511 1515 1517 1520 1523 1526 1529 1533 1537 1539 1542 1543 1544 1545 1546 1546 1547 1547 1547 1546 1544 1543 1543 1544 1544 1544 1544 1544 1543
1458 1461 1500 1504 1544 1546 1535 1521 1511 1493 1496 1493 1481 1476 1481 1483 1487 1493 1499 1504 1509 1514 1516 1519 1522 1525 1527 1531 1534 1538 1540 1541 1543 1543 1543 1544 1545 1544 1545 1545 1544 1543 1542 1542 1542 1542 1542 1542 1541
1471 1480 1476 1493 1514 1544 1548 1540 1480 1476 1472 1482 1473 1474 1481 1485 1489 1490 1495 1501 1507 1512 1515 1517 1521 1524 1526 1529 1532 1535 1537 1538 1541 1542 1543 1542 1543 1542 1543 1543 1543 1542 1541 1542 1541 1540 1540 1540 1541
1453 1466 1471 1508 1504 1501 1508 1515 1465 1464 1457 1457 1463 1470 1475 1480 1485 1491 1494 1497 1504 1509 1512 1515 1518 1521 1524 1526 1530 1532 1535 1536 1538 1540 1541 1542 1542 1542 1542 1542 1543 1542 1541 1541 1540 1540 1540 1540 1539